Flag for Germany Weather past 2 weeks in Oelde, North Rhine-Westphalia, Germany

Now
52 °F

Sunny.


Feels Like: 49 °F
Forecast: 48 / 60 °F
Wind: 8 mph from Southwest

Location: Paderborn / Lippstadt

Current Time: Apr 25, 2015 at 9:58:21 PM

Latest Report: Apr 25, 2015 at 9:20 PM


Visibility: 10 mi

Pressure: 29.77 "Hg

Humidity: 88%

Dew point: 48 °F

Location of OeldeLocation

Historic Weather in Oelde — Graph

°F

Oelde temperature yesterday

Maximum temperature yesterday: 66 °F (at 3:50 PM)
Minimum temperature yesterday: 37 °F (at 6:20 AM)
Average temperature yesterday: 54 °F

Past Weeks' High & Low Weather Summary

 TemperatureHumidityPressure
High70 °F (Apr 15, 2:20 PM)94% (Apr 25, 5:50 PM)30.45 "Hg (Apr 25, 5:50 PM)
Low28 °F (Apr 19, 6:50 AM)21% (Apr 21, 4:50 PM)29.74 "Hg (Apr 25, 4:20 PM)
Average49 °F60%30.17 "Hg
* Reported Apr 10 8:20 PM — Apr 25 8:50 PM, Oelde, Weather by CustomWeather, © 2015

Note: Actual official high and low records may vary slightly from our data, if they occured in-between our weather recording intervals... More about our weather records

Advertising

Oelde weather history for previous 24 hours

 ConditionsComfort  
Time TempWeatherWind HumidityBarometerVisibility
8:50 PM
Sat, Apr 25
52 °FPartly sunny.7 mph88%29.77 "HgN/A
8:20 PM54 °FPartly sunny.9 mph82%29.77 "HgN/A
7:50 PM54 °FBroken clouds.6 mph88%29.74 "HgN/A
7:20 PM54 °FBroken clouds.7 mph82%29.74 "HgN/A
6:50 PM54 °FBroken clouds.5 mph88%29.74 "HgN/A
6:20 PM54 °FScattered clouds.6 mph88%29.74 "HgN/A
5:50 PM54 °FDrizzle. Broken clouds.3 mph94%29.77 "Hg5 mi
5:20 PM54 °FDrizzle. Broken clouds.2 mph88%29.74 "Hg5 mi
4:50 PM54 °FDrizzle. Broken clouds.6 mph88%29.74 "Hg5 mi
4:20 PM55 °FPartly sunny.6 mph77%29.74 "HgN/A
3:50 PM55 °FScattered clouds.6 mph72%29.77 "HgN/A
3:20 PM55 °FScattered clouds.8 mph72%29.77 "HgN/A
2:50 PM55 °FScattered clouds.7 mph72%29.77 "HgN/A
2:20 PM54 °FLight rain. Scattered clouds.6 mph82%29.77 "HgN/A
1:50 PM50 °FLight rain. Partly sunny.9 mph88%29.77 "HgN/A
1:20 PM52 °FLight rain. Broken clouds.10 mph82%29.77 "Hg4 mi
12:50 PM57 °FScattered clouds.16 mph67%29.77 "Hg6 mi
12:20 PM59 °FScattered clouds.14 mph63%29.77 "Hg6 mi
11:50 AM57 °FScattered clouds.13 mph63%29.77 "Hg6 mi
11:20 AM57 °FClear.12 mph63%29.77 "Hg6 mi
10:50 AM57 °FClear.3 mph63%29.77 "Hg6 mi
10:20 AM57 °FScattered clouds.8 mph59%29.77 "HgN/A
9:50 AM55 °FScattered clouds.5 mph59%29.77 "HgN/A
9:20 AM55 °FScattered clouds.5 mph55%29.77 "HgN/A
8:50 AM54 °FScattered clouds.8 mph63%29.80 "HgN/A
8:20 AM55 °FScattered clouds.1 mph59%29.77 "HgN/A
7:50 AM55 °FPassing clouds.3 mph55%29.77 "HgN/A
7:20 AM57 °FSunny.3 mph51%29.77 "Hg10 mi
6:50 AM55 °FClear.2 mph51%29.77 "Hg10 mi
6:20 AM55 °FPassing clouds.3 mph51%29.77 "HgN/A
5:20 AM57 °FClear.8 mph44%29.77 "Hg10 mi
4:50 AM57 °FClear.9 mph41%29.77 "Hg10 mi
4:20 AM55 °FClear.7 mph47%29.80 "Hg10 mi
3:50 AM55 °FPassing clouds.9 mph51%29.80 "HgN/A
3:20 AM59 °FClear.10 mph45%29.80 "Hg10 mi
2:50 AM57 °FClear.9 mph48%29.80 "Hg10 mi
2:20 AM59 °FClear.9 mph45%29.80 "Hg10 mi
1:50 AM59 °FClear.9 mph45%29.80 "Hg10 mi
1:20 AM59 °FClear.9 mph45%29.80 "Hg10 mi
12:50 AM57 °FClear.7 mph44%29.83 "Hg10 mi
12:20 AM57 °FClear.8 mph41%29.83 "Hg10 mi
11:50 PM
Fri, Apr 24
57 °FClear.8 mph39%29.83 "Hg10 mi
11:20 PM57 °FPassing clouds.8 mph41%29.83 "HgN/A
10:50 PM52 °FClear.5 mph58%29.83 "Hg10 mi
10:20 PM52 °FClear.9 mph58%29.83 "Hg10 mi
9:50 PM54 °FClear.7 mph51%29.83 "Hg10 mi
9:20 PM59 °FSunny.5 mph39%29.86 "Hg10 mi
Weather by CustomWeather, © 2015

See weather overviewHow to use our weather pages